This is the latest recevied weather packets stored in our database for station/object K3HW. If no packets are shown the sender has not sent any weather packets the latest 10 day(s).
| Time | Temp. | Humidity | Pressure | Rain* | Wind** | Luminosity | Snow |
|---|---|---|---|---|---|---|---|
| 1778079005 | 17.22° C | 84% | 1012.9 hPa | 3.05 mm | - | 70 W/m² | - |
| 1778078702 | 16.67° C | 83% | 1012.9 hPa | 1.27 mm | - | 62 W/m² | - |
| 1778078400 | 17.22° C | 82% | 1012.9 hPa | 3.05 mm | - | 49 W/m² | - |
| 1778078097 | 17.22° C | 82% | 1012.9 hPa | 3.05 mm | - | 31 W/m² | - |
| 1778077795 | 17.78° C | 81% | 1012.9 hPa | 1.27 mm | - | 25 W/m² | - |
| 1778077493 | 17.78° C | 77% | 1012.9 hPa | 0 mm | - | 24 W/m² | - |
| 1778077190 | 17.78° C | 75% | 1012.9 hPa | 0 mm | - | 25 W/m² | - |
| 1778076888 | 18.33° C | 74% | 1013 hPa | 0 mm | - | 32 W/m² | - |
| 1778076586 | 18.33° C | 74% | 1012.8 hPa | 0 mm | - | 29 W/m² | - |
| 1778076283 | 18.89° C | 71% | 1013 hPa | 0 mm | - | 32 W/m² | - |
| 1778075979 | 18.89° C | 69% | 1012.5 hPa | 0 mm | - | 31 W/m² | - |
| 1778075677 | 19.44° C | 70% | 1012.6 hPa | 0 mm | - | 44 W/m² | - |
| 1778075373 | 19.44° C | 69% | 1012.6 hPa | 0 mm | - | 78 W/m² | - |
| 1778075069 | 20° C | 68% | 1012.6 hPa | 0 mm | - | 131 W/m² | - |
| 1778074766 | 19.44° C | 69% | 1012.6 hPa | 0 mm | - | 147 W/m² | - |
| 1778074463 | 19.44° C | 69% | 1012.6 hPa | 0 mm | - | 126 W/m² | - |
| 1778074160 | 18.89° C | 70% | 1012.9 hPa | 0 mm | - | 89 W/m² | - |
| 1778073857 | 18.89° C | 70% | 1012.8 hPa | 0 mm | - | 59 W/m² | - |
| 1778073555 | 18.89° C | 69% | 1012.8 hPa | 0 mm | - | 51 W/m² | - |
| 1778073251 | 18.89° C | 70% | 1012.8 hPa | 0 mm | - | 48 W/m² | - |
| 1778072948 | 18.89° C | 70% | 1012.8 hPa | 0 mm | - | 39 W/m² | - |
| 1778072644 | 18.89° C | 69% | 1012.8 hPa | 0 mm | - | 42 W/m² | - |
| 1778072343 | 18.89° C | 68% | 1013.1 hPa | 0 mm | - | 44 W/m² | - |
| 1778072041 | 18.89° C | 69% | 1013.1 hPa | 0 mm | - | 40 W/m² | - |
| 1778071739 | 19.44° C | 68% | 1013 hPa | 0 mm | - | 23 W/m² | - |
* Rain latest hour (hover to see other rain measurements)
** Current wind speed in m/s (hover to see current wind gust speed)